Regional Weather Roundup
Issued by NWS Green Bay, WI

Home | Current Version | Previous Version | Text Only | Print | Product List | Glossary On
Versions: 1 2 3 4 5 6 7 8 9 10 11 12 13 14 15 16 17 18 19 20 21 22 23 24 25 26 27 28 29 30 31 32 33 34 35 36 37 38 39 40 41 42 43 44 45 46 47 48 49 50
796
ASUS43 KGRB 102311
RWRGRB

NORTH-CENTRAL AND NORTHEAST WISCONSIN REGIONAL WEATHER ROUNDUP
NATIONAL WEATHER SERVICE GREEN BAY WI
500 PM CST SAT DEC 10 2016

WIZ005-009-010>012-018-019-110000-
NORTH CENTRAL WISCONSIN

CITY           SKY/WX    TMP DP  RH WIND       PRES   REMARKS
IRONWOOD       PTCLDY     0  -4  83 CALM      30.31F
MANITOWISH WTR CLEAR     -4  -5  93 CALM      30.26S
ARBOR VITAE    CLEAR      4  -1  81 CALM      30.27S
EAGLE RIVER    CLEAR      4  -3  73 CALM      30.26F
LAND O LAKES   CLEAR      0  -3  85 CALM      30.27F
RHINELANDER    CLOUDY     8  -1  66 CALM      30.27S
PHILLIPS       CLOUDY     7   0  74 CALM      30.27S
ANTIGO         PTCLDY     6   0  76 SW3       30.29S
TOMAHAWK       CLOUDY     6   0  76 CALM      30.29S
MERRILL        CLOUDY    10   1  68 CALM      30.32S
$$

WIZ013-073-110000-
NORTHEAST WISCONSIN

CITY           SKY/WX    TMP DP  RH WIND       PRES   REMARKS
IRON MOUNTAIN  CLEAR      9  -2  61 CALM      30.29F
MARINETTE        N/A     16   3  56 CALM      30.36F
OCONTO         PTCLDY    13   3  62 SW3       30.37S
$$

WIZ017-030-035>037-045-110000-
CENTRAL WISCONSIN

CITY           SKY/WX    TMP DP  RH WIND       PRES   REMARKS
MEDFORD        PTCLDY     8   2  73 CALM      30.28S
WAUSAU         CLOUDY    10   1  67 W3        30.31S
MOSINEE        MOCLDY    12   3  67 CALM      30.33S
MARSHFIELD     CLOUDY    13   3  64 CALM      30.31S
WISC RAPIDS    CLOUDY    15   6  67 SW3       30.35F
STEVENS POINT  PTCLDY    13   2  61 CALM      30.34S
WAUPACA        CLOUDY    18   7  63 CALM      30.37S
SHAWANO        CLOUDY    16   6  66 CALM      30.36S
CLINTONVILLE   PTCLDY    16   5  62 CALM      30.36S
WAUTOMA        FLURRIES  17   8  67 SW3       30.37S
$$

WIZ038-039-048-051-110000-
FOX VALLEY

CITY           SKY/WX    TMP DP  RH WIND       PRES   REMARKS
NWS GREEN BAY  CLOUDY    19   8  62 W3        30.37R
APPLETON       CLOUDY    18   5  57 SW6       30.34R WCI   9
OSHKOSH        PTCLDY    17   7  64 SW5       30.37R WCI  10
FOND DU LAC    CLOUDY    18   6  59 SW5       30.38R
$$

WIZ022-050-052-110000-
EAST CENTRAL WISCONSIN

CITY           SKY/WX    TMP DP  RH WIND       PRES   REMARKS
EPHRAIM        FAIR      16   4  60 CALM      30.33F
WASHINGTON ISL MOCLDY    18   5  57 W3        30.34S
STURGEON BAY   PTCLDY    14   4  64 S5        30.36F WCI   6
MANITOWOC      CLOUDY    18   8  65 W6        30.38S WCI  10
SHEBOYGAN      CLOUDY    18   8  65 W8        30.39R WCI   8
$$

LMZ563-521-522-541>543-110000-
LAKESHORE

STATION/POSITION TIME  TEMP    WIND        PRES    VSBY  WAVE
                       AIR SEA DIR/SP/G                  HT/PER
                 (UTC) (F)     (DEG/KT/KT) (MB)    (MI)  (FT/S)
SHEBOYGAN LKSHOR 2300   19     240/  8/ 10 1030.1R
KEWAUNEE LKSHORE 2248   17     300/  2/  4 1027.7F
ALGOMA MARINA    2236          300/  1/  3   N/A
NORTHPORT PIER   2300   18      CALM  /  5 1027.4
SISTER BAY LKSHO 2235   20     290/  7/ 10   N/A
CHAMBERS ISLAND  2240   18     210/  3/  7 1027.1F
MENOMINEE LKSHOR 2248   17     220/  5/  6 1027.1F
$$




USA.gov is the U.S. government's official web portal to all federal, state and local government web resources and services.